TAR498 LSGG-DTTA

Flight info

Callsign TAR498
Flight time 1h 33m
Altitude 37000
Route MEDAM DCT NITAM DCT MOGBO DCT LAGEN DCT PIDAD DCT TALEP DCT VAREK DCT LOKDU DCT PELOS DCT IPROM DCT CAR DCT NOLSI UA868 TUC
Aircraft A320/M-SDE3FGHIRWY/LB1

Departure

Time 2026-05-04 11:25
Airport Geneva International Airport (LSGG)

Arrival

Time 2026-05-04 12:58
Airport Tunis Carthage International Airport (DTTA)
Time Latitude Longitude Altitude Speed Heading
2026-05-04 10:22 46.23055 6.10613 1393 ft 0 kts 135°
2026-05-04 11:14 46.23056 6.10611 1393 ft 3 kts 135°
2026-05-04 11:14 46.23073 6.10582 1405 ft 4 kts 115°
2026-05-04 11:14 46.23079 6.10546 1402 ft 4 kts 78°
2026-05-04 11:16 46.23071 6.10519 1397 ft 0 kts 45°
2026-05-04 11:19 46.23351 6.10838 1397 ft 15 kts 43°
2026-05-04 11:19 46.23411 6.10928 1395 ft 10 kts 46°
2026-05-04 11:19 46.23450 6.10985 1398 ft 6 kts 45°
2026-05-04 11:19 46.23506 6.11067 1404 ft 22 kts 45°
2026-05-04 11:20 46.23593 6.11167 1395 ft 10 kts 355°
2026-05-04 11:20 46.23635 6.11116 1397 ft 7 kts 314°
2026-05-04 11:20 46.23698 6.11073 1387 ft 11 kts 20°
2026-05-04 11:20 46.23759 6.11161 1379 ft 14 kts 45°
2026-05-04 11:22 46.24578 6.12362 1371 ft 16 kts 46°
2026-05-04 11:22 46.24690 6.12528 1364 ft 26 kts 45°
2026-05-04 11:23 46.24817 6.12677 1363 ft 22 kts 20°
2026-05-04 11:23 46.24937 6.12725 1367 ft 14 kts
2026-05-04 11:24 46.24710 6.12221 1372 ft 84 kts 225°
2026-05-04 11:25 46.24177 6.11440 1373 ft 135 kts 225°
2026-05-04 11:25 46.23429 6.10339 1569 ft 159 kts 227°
2026-05-04 11:25 46.22726 6.09254 2493 ft 143 kts 227°
2026-05-04 11:26 46.21217 6.07016 3369 ft 177 kts 224°
2026-05-04 11:27 46.13006 5.95775 7891 ft 258 kts 199°
2026-05-04 11:28 46.11229 5.95446 8692 ft 264 kts 175°
2026-05-04 11:28 46.09478 5.96311 9467 ft 273 kts 150°
2026-05-04 11:28 46.08125 5.98267 10266 ft 285 kts 124°
2026-05-04 11:28 46.07293 6.00961 10709 ft 307 kts 115°
2026-05-04 11:29 46.06506 6.03946 10953 ft 330 kts 114°
2026-05-04 11:29 46.05713 6.07078 11459 ft 342 kts 114°
2026-05-04 11:29 46.04827 6.10275 12140 ft 345 kts 121°
2026-05-04 11:29 46.03523 6.13161 12832 ft 345 kts 133°
2026-05-04 11:31 45.91417 6.26484 19286 ft 294 kts 148°
2026-05-04 11:33 45.77573 6.41125 20940 ft 388 kts 146°
2026-05-04 11:33 45.75400 6.43446 21448 ft 391 kts 146°
2026-05-04 11:33 45.73213 6.45775 21941 ft 393 kts 146°
2026-05-04 11:34 45.71038 6.48081 22415 ft 396 kts 147°
2026-05-04 11:34 45.68816 6.50426 22865 ft 397 kts 147°
2026-05-04 11:34 45.66578 6.52777 23268 ft 400 kts 147°
2026-05-04 11:34 45.64328 6.55143 23666 ft 403 kts 146°
2026-05-04 11:35 45.62063 6.57527 24033 ft 406 kts 147°
2026-05-04 11:35 45.59780 6.59929 24423 ft 409 kts 147°
2026-05-04 11:35 45.57483 6.62343 24832 ft 411 kts 147°
2026-05-04 11:35 45.55170 6.64771 25221 ft 414 kts 147°
2026-05-04 11:36 45.52846 6.67209 25597 ft 416 kts 147°
2026-05-04 11:36 45.50542 6.69629 25943 ft 419 kts 147°
2026-05-04 11:36 45.48189 6.72094 26317 ft 421 kts 147°
2026-05-04 11:36 45.45821 6.74569 26707 ft 423 kts 147°
2026-05-04 11:37 45.43435 6.77033 27054 ft 425 kts 147°
2026-05-04 11:37 45.41022 6.79474 27403 ft 427 kts 148°
2026-05-04 11:37 45.38585 6.81908 27770 ft 429 kts 148°
2026-05-04 11:37 45.36128 6.84342 28136 ft 432 kts 148°
2026-05-04 11:38 45.33660 6.86787 28468 ft 434 kts 148°
2026-05-04 11:38 45.31214 6.89215 28822 ft 436 kts 148°
2026-05-04 11:38 45.28720 6.91700 29163 ft 438 kts 148°
2026-05-04 11:38 45.26266 6.94287 29450 ft 443 kts 142°
2026-05-04 11:39 45.24016 6.97309 29749 ft 447 kts 139°
2026-05-04 11:39 45.21789 7.00408 30065 ft 449 kts 139°
2026-05-04 11:40 45.09031 7.18978 31622 ft 463 kts 128°
2026-05-04 11:41 45.07177 7.22712 31918 ft 464 kts 129°
2026-05-04 11:41 45.05321 7.26441 32253 ft 464 kts 129°
2026-05-04 11:41 45.03465 7.30171 32567 ft 464 kts 129°
2026-05-04 11:41 45.01607 7.33900 32865 ft 464 kts 129°
2026-05-04 11:42 44.99746 7.37633 33142 ft 465 kts 129°
2026-05-04 11:42 44.97878 7.41367 33425 ft 466 kts 129°
2026-05-04 11:42 44.95978 7.45073 33711 ft 466 kts 130°
2026-05-04 11:42 44.94068 7.48695 33999 ft 466 kts 131°
2026-05-04 11:43 44.92111 7.52344 34293 ft 466 kts 131°
2026-05-04 11:43 44.90147 7.55983 34583 ft 467 kts 131°
2026-05-04 11:43 44.88180 7.59627 34849 ft 467 kts 131°
2026-05-04 11:43 44.86218 7.63276 35099 ft 467 kts 131°
2026-05-04 11:44 44.84264 7.66924 35348 ft 467 kts 131°
2026-05-04 11:44 44.82310 7.70593 35578 ft 468 kts 131°
2026-05-04 11:44 44.80360 7.74260 35809 ft 468 kts 131°
2026-05-04 11:44 44.78435 7.77878 36042 ft 468 kts 131°
2026-05-04 11:45 44.76481 7.81542 36267 ft 468 kts 131°
2026-05-04 11:45 44.74524 7.85200 36488 ft 468 kts 131°
2026-05-04 11:45 44.72563 7.88848 36702 ft 468 kts 131°
2026-05-04 11:45 44.70596 7.92489 36900 ft 468 kts 131°
2026-05-04 11:46 44.68625 7.96129 37080 ft 468 kts 131°
2026-05-04 11:46 44.64688 8.03417 37120 ft 468 kts 131°
2026-05-04 11:47 44.60773 8.10660 37117 ft 469 kts 131°
2026-05-04 11:47 44.56831 8.17934 37123 ft 471 kts 131°
2026-05-04 11:48 44.52807 8.25308 37125 ft 481 kts 131°
2026-05-04 11:48 44.48705 8.32817 37130 ft 489 kts 131°
2026-05-04 11:49 44.44559 8.40409 37136 ft 492 kts 131°
2026-05-04 11:49 44.39864 8.47110 37147 ft 482 kts 149°
2026-05-04 11:50 44.33970 8.51214 37150 ft 469 kts 168°
2026-05-04 11:50 44.27637 8.53127 37148 ft 466 kts 173°
2026-05-04 11:51 44.21605 8.54822 37141 ft 466 kts 173°
2026-05-04 11:51 44.15286 8.56605 37138 ft 466 kts 173°
2026-05-04 11:52 44.08924 8.58407 37129 ft 467 kts 174°
2026-05-04 11:52 44.02557 8.60200 37126 ft 467 kts 174°
2026-05-04 11:53 43.96189 8.61976 37124 ft 467 kts 174°
2026-05-04 11:53 43.89864 8.63741 37116 ft 467 kts 174°
2026-05-04 11:55 43.64394 8.70786 37108 ft 467 kts 176°
2026-05-04 11:56 43.58003 8.71219 37101 ft 458 kts 186°
2026-05-04 11:56 43.51644 8.71053 37095 ft 451 kts 196°
2026-05-04 11:57 43.45686 8.68747 37093 ft 446 kts 199°
2026-05-04 11:57 43.39660 8.66674 37089 ft 446 kts 201°
2026-05-04 11:58 43.33958 8.63732 37091 ft 438 kts 210°
2026-05-04 11:58 43.28523 8.60018 37073 ft 435 kts 212°
2026-05-04 11:59 43.23127 8.56251 37084 ft 435 kts 212°
2026-05-04 11:59 43.17666 8.52667 37083 ft 435 kts 211°
2026-05-04 12:00 43.12212 8.49215 37084 ft 435 kts 210°
2026-05-04 12:00 43.06733 8.45743 37082 ft 434 kts 211°
2026-05-04 12:01 43.01271 8.42246 37080 ft 433 kts 211°
2026-05-04 12:02 42.82236 8.30096 37067 ft 431 kts 211°
2026-05-04 12:03 42.76806 8.26651 37068 ft 430 kts 211°
2026-05-04 12:03 42.71413 8.23245 37066 ft 430 kts 211°
2026-05-04 12:04 42.65988 8.19827 37062 ft 430 kts 211°
2026-05-04 12:04 42.60572 8.16409 37068 ft 429 kts 211°
2026-05-04 12:05 42.55155 8.12993 37075 ft 429 kts 211°
2026-05-04 12:05 42.49777 8.09618 37073 ft 429 kts 211°
2026-05-04 12:06 42.44362 8.06226 37073 ft 428 kts 211°
2026-05-04 12:06 42.38956 8.02841 37078 ft 428 kts 211°
2026-05-04 12:07 42.33490 7.99605 37079 ft 434 kts 204°
2026-05-04 12:07 42.30510 7.98732 37080 ft 444 kts 193°
2026-05-04 12:07 42.27382 7.98659 37076 ft 456 kts 182°
2026-05-04 12:08 42.21090 7.99636 37065 ft 459 kts 181°
2026-05-04 12:08 42.14751 8.00658 37065 ft 459 kts 181°
2026-05-04 12:09 42.08413 8.01660 37064 ft 458 kts 181°
2026-05-04 12:09 42.02077 8.02637 37063 ft 458 kts 181°
2026-05-04 12:10 41.95738 8.03627 37056 ft 459 kts 181°
2026-05-04 12:10 41.89436 8.04635 37057 ft 460 kts 181°
2026-05-04 12:11 41.83082 8.05651 37062 ft 460 kts 181°
2026-05-04 12:11 41.76716 8.06656 37074 ft 461 kts 181°
2026-05-04 12:12 41.70394 8.07655 37078 ft 461 kts 181°
2026-05-04 12:12 41.64030 8.08660 37076 ft 460 kts 181°
2026-05-04 12:14 41.38643 8.12634 37075 ft 459 kts 182°
2026-05-04 12:15 41.32299 8.13633 37070 ft 459 kts 181°
2026-05-04 12:15 41.25959 8.14632 37068 ft 459 kts 182°
2026-05-04 12:16 41.19617 8.15628 37064 ft 461 kts 179°
2026-05-04 12:16 41.16460 8.16632 37065 ft 473 kts 169°
2026-05-04 12:16 41.13413 8.18413 37061 ft 486 kts 158°
2026-05-04 12:17 41.07598 8.23065 37056 ft 487 kts 158°
2026-05-04 12:17 41.01667 8.27202 37053 ft 483 kts 162°
2026-05-04 12:18 40.95617 8.31049 37051 ft 483 kts 162°
2026-05-04 12:18 40.89570 8.34958 37049 ft 485 kts 161°
2026-05-04 12:19 40.83546 8.38997 37050 ft 486 kts 161°
2026-05-04 12:19 40.77524 8.43056 37049 ft 486 kts 161°
2026-05-04 12:20 40.71533 8.47055 37061 ft 486 kts 161°
2026-05-04 12:20 40.65484 8.51060 37058 ft 487 kts 161°
2026-05-04 12:21 40.59429 8.55060 37060 ft 487 kts 161°
2026-05-04 12:21 40.53371 8.59069 37061 ft 488 kts 161°
2026-05-04 12:22 40.47343 8.63054 37061 ft 488 kts 161°
2026-05-04 12:22 40.41268 8.67049 37063 ft 489 kts 161°
2026-05-04 12:23 40.35181 8.71027 37072 ft 489 kts 161°
2026-05-04 12:23 40.29087 8.75019 37069 ft 490 kts 161°
2026-05-04 12:24 40.23029 8.79001 37064 ft 490 kts 161°
2026-05-04 12:24 40.16928 8.82991 37063 ft 491 kts 161°
2026-05-04 12:25 40.10807 8.86972 37066 ft 491 kts 161°
2026-05-04 12:25 40.04685 8.90955 37056 ft 492 kts 161°
2026-05-04 12:26 39.98597 8.94908 37058 ft 492 kts 161°
2026-05-04 12:26 39.92464 8.98884 37061 ft 493 kts 161°
2026-05-04 12:27 39.86318 9.02856 37074 ft 494 kts 161°
2026-05-04 12:27 39.80152 9.06823 37082 ft 495 kts 160°
2026-05-04 12:28 39.73978 9.10798 37099 ft 496 kts 160°
2026-05-04 12:28 39.67834 9.14748 37106 ft 497 kts 160°
2026-05-04 12:29 39.61642 9.18709 37106 ft 497 kts 160°
2026-05-04 12:29 39.55433 9.22669 37099 ft 498 kts 160°
2026-05-04 12:30 39.49214 9.26641 37097 ft 499 kts 160°
2026-05-04 12:30 39.43030 9.30589 37080 ft 499 kts 160°
2026-05-04 12:31 39.36791 9.34563 37083 ft 500 kts 159°
2026-05-04 12:31 39.30543 9.38534 37084 ft 501 kts 159°
2026-05-04 12:32 39.21283 9.44901 37094 ft 505 kts 155°
2026-05-04 12:33 39.15258 9.49430 37086 ft 505 kts 155°
2026-05-04 12:33 39.09163 9.53944 37087 ft 505 kts 155°
2026-05-04 12:34 39.03031 9.58352 37082 ft 505 kts 156°
2026-05-04 12:34 38.96886 9.62734 37081 ft 505 kts 156°
2026-05-04 12:35 38.90747 9.67135 37074 ft 505 kts 155°
2026-05-04 12:35 38.84740 9.71456 37084 ft 488 kts 156°
2026-05-04 12:36 38.78638 9.74850 37083 ft 473 kts 168°
2026-05-04 12:36 38.72384 9.77445 37078 ft 472 kts 168°
2026-05-04 12:37 38.66129 9.80020 37074 ft 472 kts 168°
2026-05-04 12:37 38.62997 9.81304 36413 ft 475 kts 168°
2026-05-04 12:37 38.59874 9.82580 35527 ft 480 kts 168°
2026-05-04 12:37 38.56681 9.83884 34703 ft 483 kts 168°
2026-05-04 12:38 38.53472 9.85195 33902 ft 485 kts 168°
2026-05-04 12:38 38.50255 9.86516 33025 ft 486 kts 167°
2026-05-04 12:38 38.47032 9.87838 32148 ft 487 kts 167°
2026-05-04 12:38 38.43802 9.89164 31294 ft 488 kts 167°
2026-05-04 12:39 38.40570 9.90491 30432 ft 488 kts 167°
2026-05-04 12:39 38.37339 9.91816 29449 ft 489 kts 167°
2026-05-04 12:39 38.34134 9.93124 28419 ft 490 kts 167°
2026-05-04 12:39 38.30906 9.94437 27702 ft 484 kts 167°
2026-05-04 12:40 38.27717 9.95734 27006 ft 478 kts 167°
2026-05-04 12:40 38.24568 9.97013 26179 ft 474 kts 167°
2026-05-04 12:40 38.21427 9.98288 25330 ft 473 kts 166°
2026-05-04 12:40 38.18304 9.99557 24705 ft 470 kts 166°
2026-05-04 12:41 38.15203 10.00816 24132 ft 466 kts 166°
2026-05-04 12:41 38.12130 10.02060 23557 ft 461 kts 166°
2026-05-04 12:41 38.09090 10.03292 22966 ft 457 kts 166°
2026-05-04 12:41 38.06073 10.04516 22431 ft 453 kts 166°
2026-05-04 12:42 38.03130 10.05705 21978 ft 445 kts 166°
2026-05-04 12:42 38.00254 10.06867 21565 ft 423 kts 166°
2026-05-04 12:42 37.97484 10.07985 20825 ft 415 kts 166°
2026-05-04 12:42 37.94737 10.09091 20325 ft 413 kts 165°
2026-05-04 12:43 37.92012 10.10184 19786 ft 409 kts 165°
2026-05-04 12:43 37.89308 10.11268 19259 ft 406 kts 165°
2026-05-04 12:43 37.86627 10.12344 18724 ft 403 kts 165°
2026-05-04 12:43 37.83965 10.13411 18166 ft 400 kts 165°
2026-05-04 12:44 37.81313 10.14133 17647 ft 393 kts 173°
2026-05-04 12:44 37.78656 10.14701 17326 ft 378 kts 173°
2026-05-04 12:44 37.76086 10.15250 16653 ft 375 kts 173°
2026-05-04 12:44 37.73521 10.15793 16157 ft 372 kts 173°
2026-05-04 12:45 37.70976 10.16330 15667 ft 370 kts 173°
2026-05-04 12:45 37.68444 10.16864 15198 ft 368 kts 173°
2026-05-04 12:45 37.65927 10.17397 14717 ft 366 kts 173°
2026-05-04 12:45 37.63424 10.17929 14235 ft 364 kts 173°
2026-05-04 12:46 37.60935 10.18455 13745 ft 362 kts 173°
2026-05-04 12:46 37.58496 10.18972 13350 ft 356 kts 173°
2026-05-04 12:46 37.56051 10.19490 12753 ft 356 kts 173°
2026-05-04 12:46 37.53620 10.20004 12289 ft 352 kts 173°
2026-05-04 12:47 37.51211 10.20512 11775 ft 350 kts 173°
2026-05-04 12:47 37.48819 10.21012 11285 ft 347 kts 173°
2026-05-04 12:47 37.46438 10.21510 10794 ft 345 kts 173°
2026-05-04 12:47 37.44079 10.22006 10395 ft 340 kts 173°
2026-05-04 12:48 37.41806 10.22486 10268 ft 320 kts 173°
2026-05-04 12:48 37.39686 10.22937 10029 ft 301 kts 173°
2026-05-04 12:48 37.37670 10.23363 9584 ft 293 kts 173°
2026-05-04 12:48 37.35660 10.23783 9440 ft 292 kts 173°
2026-05-04 12:49 37.33650 10.24201 8880 ft 291 kts 173°
2026-05-04 12:49 37.31669 10.24612 8294 ft 286 kts 172°
2026-05-04 12:49 37.29718 10.25022 7731 ft 283 kts 172°
2026-05-04 12:49 37.27790 10.25428 7176 ft 279 kts 172°
2026-05-04 12:50 37.25883 10.25826 6624 ft 276 kts 172°
2026-05-04 12:50 37.23997 10.26220 6012 ft 276 kts 172°
2026-05-04 12:50 37.22098 10.26616 5457 ft 274 kts 172°
2026-05-04 12:50 37.20863 10.26875 5109 ft 270 kts 172°
2026-05-04 12:51 37.18483 10.27376 5012 ft 253 kts 172°
2026-05-04 12:51 37.16786 10.27730 4939 ft 242 kts 172°
2026-05-04 12:51 37.15155 10.28070 4847 ft 233 kts 172°
2026-05-04 12:51 37.13590 10.28398 4745 ft 223 kts 173°
2026-05-04 12:52 37.12593 10.28605 4679 ft 216 kts 173°
2026-05-04 12:52 37.11144 10.28905 4605 ft 204 kts 173°
2026-05-04 12:52 37.09789 10.29183 4508 ft 193 kts 175°
2026-05-04 12:52 37.08473 10.29069 4269 ft 188 kts 193°
2026-05-04 12:53 37.07225 10.28742 4026 ft 177 kts 193°
2026-05-04 12:53 37.05685 10.28321 3736 ft 167 kts 193°
2026-05-04 12:53 37.04558 10.28012 3528 ft 165 kts 193°
2026-05-04 12:53 37.03441 10.27707 3323 ft 164 kts 194°
2026-05-04 12:54 37.02692 10.27502 3171 ft 163 kts 193°
2026-05-04 12:54 37.01598 10.27202 2963 ft 163 kts 193°
2026-05-04 12:54 37.00496 10.26901 2747 ft 162 kts 193°
2026-05-04 12:54 36.99394 10.26599 2536 ft 162 kts 193°
2026-05-04 12:55 36.98298 10.26300 2326 ft 161 kts 192°
2026-05-04 12:55 36.97214 10.26004 2114 ft 159 kts 193°
2026-05-04 12:55 36.96177 10.25720 1933 ft 145 kts 192°
2026-05-04 12:55 36.95216 10.25458 1738 ft 138 kts 191°
2026-05-04 12:56 36.94296 10.25207 1557 ft 137 kts 192°
2026-05-04 12:56 36.93334 10.24944 1373 ft 144 kts 191°
2026-05-04 12:56 36.92382 10.24684 1177 ft 138 kts 191°
2026-05-04 12:56 36.91462 10.24433 1005 ft 134 kts 189°
2026-05-04 12:57 36.90550 10.24184 839 ft 135 kts 188°
2026-05-04 12:57 36.89628 10.23933 651 ft 135 kts 186°
2026-05-04 12:57 36.88708 10.23688 457 ft 135 kts 188°
2026-05-04 12:57 36.87775 10.23428 255 ft 138 kts 187°
2026-05-04 12:58 36.86831 10.23165 104 ft 139 kts 188°
2026-05-04 12:58 36.85921 10.22924 29 ft 118 kts 192°
2026-05-04 12:58 36.85284 10.22749 33 ft 82 kts 192°
2026-05-04 12:58 36.84836 10.22625 32 ft 47 kts 193°
2026-05-04 12:59 36.84601 10.22544 28 ft 27 kts 211°
2026-05-04 12:59 36.84487 10.22374 30 ft 15 kts 258°
2026-05-04 12:59 36.84486 10.22366 30 ft 0 kts 266°
2026-05-04 13:00 36.84486 10.22354 30 ft 6 kts 266°
2026-05-04 13:00 36.84482 10.22295 30 ft 8 kts 268°
2026-05-04 13:00 36.84500 10.22157 30 ft 18 kts 285°
2026-05-04 13:00 36.84570 10.22088 30 ft 14 kts
2026-05-04 13:01 36.84658 10.22108 30 ft 12 kts
2026-05-04 13:01 36.84719 10.22064 30 ft 10 kts 291°
2026-05-04 13:01 36.84728 10.21993 30 ft 6 kts 253°
2026-05-04 13:01 36.84694 10.21972 30 ft 5 kts 198°
2026-05-04 13:02 36.84666 10.21961 30 ft 3 kts 198°
2026-05-04 13:02 36.84663 10.21960 30 ft 0 kts 198°